When you browse on this site, cookies collect data to enhance your experience and personalize the content and advertising you see.
Visit our Privacy Policy to learn more. By continuing to use the site, you agree to this use of cookies and data.
  • en France
  • Liste des pays
  • À 7 jours
  • Température de l'eau
  • Carte satellitaire
  • Carte météo
  • Widgets météo
  • user-avatar
    Se connecter

    Météo par heure à Asadabad

    Ce jour, 17 Juillet, Mercredi

    Heure Température Précipitation Vent Pression Humidité
    00:00 +26°C° 0.4 mm 1 m/s 654 mmHg 80%
    01:00 +26°C° 0.4 mm 1 m/s 654 mmHg 82%
    02:00 +26°C° 0.4 mm 1 m/s 654 mmHg 83%
    03:00 +25°C° 0.1 mm 1 m/s 654 mmHg 83%
    04:00 +25°C° 0.1 mm 1 m/s 654 mmHg 84%
    05:00 +25°C° 0.1 mm 1 m/s 654 mmHg 84%
    06:00 +25°C° 0 mm 1 m/s 654 mmHg 82%
    07:00 +26°C° 0 mm 1 m/s 654 mmHg 79%
    08:00 +26°C° 0 mm 1 m/s 654 mmHg 77%
    09:00 +27°C° 0.1 mm 2 m/s 654 mmHg 73%
    10:00 +28°C° 0.1 mm 2 m/s 654 mmHg 69%
    11:00 +29°C° 0.1 mm 2 m/s 655 mmHg 66%
    12:00 +30°C° 0.1 mm 2 m/s 654 mmHg 64%
    13:00 +30°C° 0.1 mm 2 m/s 654 mmHg 62%
    14:00 +31°C° 0.1 mm 3 m/s 654 mmHg 60%
    15:00 +31°C° 0.1 mm 2 m/s 653 mmHg 60%
    16:00 +31°C° 0.1 mm 2 m/s 653 mmHg 60%
    17:00 +31°C° 0.1 mm 2 m/s 653 mmHg 60%
    18:00 +30°C° 0.3 mm 2 m/s 653 mmHg 63%
    19:00 +30°C° 0.3 mm 2 m/s 653 mmHg 65%
    20:00 +29°C° 0.3 mm 1 m/s 654 mmHg 68%
    21:00 +28°C° 0.6 mm 1 m/s 654 mmHg 70%
    22:00 +28°C° 0.6 mm 1 m/s 654 mmHg 72%
    23:00 +27°C° 0.6 mm 1 m/s 654 mmHg 74%

    Demain, 18 Juillet, Jeudi

    Heure Température Précipitation Vent Pression Humidité
    00:00 +27°C° 0.4 mm 1 m/s 654 mmHg 74%
    01:00 +27°C° 0.4 mm 1 m/s 654 mmHg 75%
    02:00 +27°C° 0.4 mm 1 m/s 653 mmHg 75%
    03:00 +26°C° 0.1 mm 1 m/s 653 mmHg 76%
    04:00 +24°C° 0.1 mm 0 m/s 653 mmHg 78%
    05:00 +24°C° 0.1 mm 0 m/s 653 mmHg 79%
    06:00 +27°C° 0.1 mm 1 m/s 654 mmHg 75%
    07:00 +27°C° 0.1 mm 1 m/s 654 mmHg 71%
    08:00 +28°C° 0.1 mm 1 m/s 654 mmHg 66%
    09:00 +29°C° 0 mm 1 m/s 654 mmHg 63%
    10:00 +30°C° 0 mm 2 m/s 654 mmHg 60%
    11:00 +31°C° 0 mm 2 m/s 655 mmHg 56%
    12:00 +32°C° 0 mm 2 m/s 654 mmHg 54%
    13:00 +33°C° 0 mm 3 m/s 654 mmHg 53%
    14:00 +34°C° 0 mm 3 m/s 654 mmHg 51%
    15:00 +34°C° 0.1 mm 3 m/s 654 mmHg 52%
    16:00 +33°C° 0.1 mm 3 m/s 654 mmHg 54%
    17:00 +33°C° 0.1 mm 3 m/s 653 mmHg 55%
    18:00 +31°C° 0.1 mm 2 m/s 653 mmHg 59%
    19:00 +31°C° 0.1 mm 2 m/s 654 mmHg 62%
    20:00 +30°C° 0.1 mm 1 m/s 654 mmHg 65%
    21:00 +30°C° 0.1 mm 1 m/s 654 mmHg 67%
    22:00 +29°C° 0.1 mm 1 m/s 654 mmHg 69%
    23:00 +27°C° 0.1 mm 0 m/s 654 mmHg 71%

    Après-demain, 19 Juillet, Vendredi

    Heure Température Précipitation Vent Pression Humidité
    00:00 +26°C° 0.2 mm 0 m/s 654 mmHg 73%
    01:00 +26°C° 0.2 mm 0 m/s 654 mmHg 74%
    02:00 +25°C° 0.2 mm 0 m/s 653 mmHg 76%
    03:00 +25°C° 0.1 mm 0 m/s 654 mmHg 76%
    04:00 +25°C° 0.1 mm 0 m/s 654 mmHg 76%
    05:00 +24°C° 0.1 mm 0 m/s 654 mmHg 76%
    06:00 +27°C° 0.1 mm 1 m/s 654 mmHg 72%
    07:00 +28°C° 0.1 mm 1 m/s 654 mmHg 68%
    08:00 +29°C° 0.1 mm 1 m/s 654 mmHg 64%
    09:00 +30°C° 0.1 mm 2 m/s 655 mmHg 61%
    10:00 +31°C° 0.1 mm 2 m/s 655 mmHg 58%
    11:00 +33°C° 0.1 mm 3 m/s 655 mmHg 55%
    12:00 +33°C° 0.1 mm 3 m/s 655 mmHg 54%
    13:00 +34°C° 0.1 mm 3 m/s 655 mmHg 53%
    14:00 +34°C° 0.1 mm 3 m/s 654 mmHg 52%
    15:00 +34°C° 0.5 mm 3 m/s 654 mmHg 53%
    16:00 +34°C° 0.5 mm 3 m/s 654 mmHg 54%
    17:00 +34°C° 0.5 mm 3 m/s 654 mmHg 55%
    18:00 +32°C° 0.5 mm 2 m/s 654 mmHg 59%
    19:00 +31°C° 0.5 mm 2 m/s 654 mmHg 63%
    20:00 +30°C° 0.5 mm 1 m/s 654 mmHg 67%
    21:00 +30°C° 0.3 mm 1 m/s 654 mmHg 69%
    22:00 +29°C° 0.3 mm 1 m/s 655 mmHg 70%
    23:00 +29°C° 0.3 mm 1 m/s 655 mmHg 71%

    20 Juillet, Samedi

    Heure Température Précipitation Vent Pression Humidité
    00:00 +29°C° 1 mm 1 m/s 655 mmHg 73%
    01:00 +28°C° 1 mm 1 m/s 655 mmHg 75%
    02:00 +28°C° 1 mm 1 m/s 654 mmHg 77%
    03:00 +27°C° 0.1 mm 1 m/s 654 mmHg 78%
    04:00 +25°C° 0.1 mm 0 m/s 654 mmHg 79%
    05:00 +24°C° 0.1 mm 0 m/s 654 mmHg 79%
    06:00 +27°C° 0 mm 1 m/s 654 mmHg 74%
    07:00 +28°C° 0 mm 1 m/s 655 mmHg 69%
    08:00 +29°C° 0 mm 1 m/s 655 mmHg 64%
    09:00 +30°C° 0 mm 2 m/s 655 mmHg 61%
    10:00 +31°C° 0 mm 2 m/s 655 mmHg 58%
    11:00 +32°C° 0 mm 2 m/s 656 mmHg 55%
    12:00 +34°C° 0 mm 3 m/s 656 mmHg 54%
    13:00 +35°C° 0 mm 3 m/s 655 mmHg 52%
    14:00 +35°C° 0 mm 3 m/s 655 mmHg 50%
    15:00 +35°C° 0.1 mm 3 m/s 655 mmHg 52%
    16:00 +35°C° 0.1 mm 3 m/s 655 mmHg 53%
    17:00 +34°C° 0.1 mm 3 m/s 654 mmHg 55%
    18:00 +32°C° 0.3 mm 2 m/s 654 mmHg 60%
    19:00 +31°C° 0.3 mm 2 m/s 654 mmHg 64%
    20:00 +30°C° 0.3 mm 1 m/s 654 mmHg 69%
    21:00 +30°C° 0.3 mm 1 m/s 654 mmHg 71%
    22:00 +30°C° 0.3 mm 1 m/s 654 mmHg 73%
    23:00 +27°C° 0.3 mm 0 m/s 655 mmHg 74%

    21 Juillet, Dimanche

    Heure Température Précipitation Vent Pression Humidité
    00:00 +27°C° 0 mm 0 m/s 654 mmHg 75%
    01:00 +26°C° 0 mm 0 m/s 654 mmHg 76%
    02:00 +26°C° 0 mm 0 m/s 653 mmHg 77%
    03:00 +26°C° 0.1 mm 0 m/s 653 mmHg 77%
    04:00 +25°C° 0.1 mm 0 m/s 653 mmHg 77%
    05:00 +25°C° 0.1 mm 0 m/s 653 mmHg 77%
    06:00 +26°C° 0 mm 0 m/s 653 mmHg 72%
    07:00 +29°C° 0 mm 1 m/s 654 mmHg 68%
    08:00 +30°C° 0 mm 1 m/s 654 mmHg 63%
    09:00 +31°C° 0 mm 1 m/s 654 mmHg 59%
    10:00 +32°C° 0 mm 2 m/s 654 mmHg 56%
    11:00 +34°C° 0 mm 2 m/s 654 mmHg 52%
    12:00 +35°C° 0 mm 3 m/s 654 mmHg 51%
    13:00 +35°C° 0 mm 3 m/s 654 mmHg 49%
    14:00 +36°C° 0 mm 3 m/s 654 mmHg 48%
    15:00 +36°C° 0.1 mm 3 m/s 653 mmHg 48%
    16:00 +36°C° 0.1 mm 3 m/s 653 mmHg 48%
    17:00 +36°C° 0.1 mm 3 m/s 653 mmHg 49%
    18:00 +35°C° 0.5 mm 2 m/s 653 mmHg 52%
    19:00 +34°C° 0.5 mm 2 m/s 653 mmHg 56%
    20:00 +32°C° 0.5 mm 1 m/s 653 mmHg 60%
    21:00 +31°C° 0.3 mm 1 m/s 653 mmHg 63%
    22:00 +31°C° 0.3 mm 1 m/s 653 mmHg 65%
    23:00 +30°C° 0.3 mm 1 m/s 653 mmHg 68%

    22 Juillet, Lundi

    Heure Température Précipitation Vent Pression Humidité
    00:00 +30°C° 0.2 mm 1 m/s 653 mmHg 68%
    01:00 +29°C° 0.2 mm 1 m/s 653 mmHg 69%
    02:00 +27°C° 0.2 mm 0 m/s 652 mmHg 69%
    03:00 +29°C° 0 mm 1 m/s 652 mmHg 67%
    04:00 +28°C° 0 mm 1 m/s 652 mmHg 64%
    05:00 +28°C° 0 mm 1 m/s 652 mmHg 62%
    06:00 +29°C° 0 mm 1 m/s 653 mmHg 58%
    07:00 +30°C° 0 mm 1 m/s 653 mmHg 54%
    08:00 +29°C° 0 mm 0 m/s 653 mmHg 50%
    09:00 +32°C° 0 mm 1 m/s 653 mmHg 47%
    10:00 +34°C° 0 mm 2 m/s 654 mmHg 45%
    11:00 +35°C° 0 mm 2 m/s 654 mmHg 42%
    12:00 +36°C° 0 mm 3 m/s 654 mmHg 40%
    13:00 +37°C° 0 mm 3 m/s 653 mmHg 38%
    14:00 +38°C° 0 mm 4 m/s 653 mmHg 35%
    15:00 +38°C° 0 mm 4 m/s 653 mmHg 36%
    16:00 +38°C° 0 mm 4 m/s 653 mmHg 37%
    17:00 +38°C° 0 mm 4 m/s 652 mmHg 38%
    18:00 +36°C° 0.1 mm 3 m/s 652 mmHg 42%
    19:00 +35°C° 0.1 mm 2 m/s 652 mmHg 46%
    20:00 +33°C° 0.1 mm 1 m/s 652 mmHg 51%
    21:00 +32°C° 0.1 mm 1 m/s 653 mmHg 54%
    22:00 +32°C° 0.1 mm 1 m/s 653 mmHg 57%
    23:00 +31°C° 0.1 mm 1 m/s 653 mmHg 60%
    Voir plus